User: anonymous   Login
Location: Radford
(37.1320°N, 80.5770°W)
Time: 01:19:40
(UTC-04:00)
Language:

Okean 1-7 - Orbit

View from above orbital plane
View from above orbital plane
View from above satellite
View from above satellite

Ground track
Ground track

The orbit data is extracted from the following two-line orbital elements,

1 23317U 94066A   17086.93455400 +.00000342 +00000-0 +35007-4 0  9991
2 23317 082.5402 194.7122 0019078 338.7911 021.2513 14.87368243213873
Epoch (UTC): 27 March 2017 22:25:45
Eccentricity: 0.0019078
inclination: 82.5402°
perigee height: 593 km
apogee height: 619 km
right ascension of ascending node: 194.7122°
argument of perigee: 338.7911°
revolutions per day: 14.87368243
mean anomaly at epoch: 21.2513°
orbit number at epoch: 21387

The dashed part of the orbit path shows where the satellite is in the earth's shadow,  

DLR